Volver al catálogo

STARLINK-34835

ActivoComunicacionesVLEO
NORAD 65336·PAYLOAD·🇺🇸 United States

Lanzado Aug 27, 2025 desde Cape Canaveral Space Force Station

Loading…

Próximos Pases (próximas 24 horas)

TLE

ActualizadoSource: CelesTrak SupGP

Época: Sep 15, 2026, 03:55 UTC

1 65336C 25189P   26258.16368056  .00015974  00000+0  47211-3 0  2587
2 65336  53.1594  44.5992 0001167  91.8523 321.1940 15.34372888    18

Sigue STARLINK-34835 en tiempo real con AllMySat

Download on the App Store